Find Starlink 30984

NORAD ID: 58480 Int'l Des: 2023-186 Owner: SPXS Country: US Constellation: starlink operational
LEOCIRCULAR

リアルタイム位置

3D地球を読み込み中...

Starlink 30984について

説明を読み込み中...

次回通過

Passes for default location (London). Set your location on the main map for personalized predictions.

高度履歴

Loading altitude history...

軌道要素

1 58480U 23186H 26107.28863613 -.00000425 00000-0 -59174-5 0 9992
2 58480 42.9995 205.2936 0000874 279.6889 80.3864 15.27577375131801
Epoch: Apr 17, 2026 • Age: 8 hours

現在のステータス

高度 486.8 km
速度 7.63 km/s
衛星直下点 43.09°N, 136.22°W
打ち上げ日 Dec 3, 2023
運用期間 2.3 years
タイプ internet

技術仕様

分類 Payload
質量 730.00 kg
乾燥質量 700.00 kg
総質量 730.00 kg
長さ 0.30 m
直径 4.10 m
スパン 29.00 m
形状 Box + pan
製造者 SPXS
バスタイプ Starlink V2M
フェーズステータス In Orbit
所有者/国 SPXS/US

Most Searched